Find Starlink 5684

NORAD ID: 55453 Int'l Des: 2023-015 Owner: SPXS Country: US Constellation: starlink operational
LEOCIRCULAR

Live Position

Loading 3D Globe...

About Starlink 5684

Description loading...

Upcoming Passes

Passes for default location (London). Set your location on the main map for personalized predictions.

Altitude History

Loading altitude history...

Two-Line Element Set

1 55453U 23015E 26121.45317992 .00038467 00000-0 14245-2 0 9991
2 55453 43.0011 30.5584 0002484 245.1323 114.9270 15.27010328178791
Epoch: May 1, 2026 • Age: 7 hours

Current Status

Altitude 485.0 km
Velocity 7.62 km/s
Sub-Earth Point -8.57°S, 88.53°E
Launch Date Feb 2, 2023
Age 3.2 years
Type internet

Technical Details

Classification Payload
Mass 305.00 kg
Dry Mass 290.00 kg
Total Mass 305.00 kg
Length 0.20 m
Diameter 2.80 m
Span 9.00 m
Shape Box + pan
Manufacturer SPXS
Bus Type Starlink
Phase Status In Orbit
Owner/State SPXS/US

Most Searched